Location: Azul
(36.7830°S, 59.8500°W)
Time: 00:37:47
(UTC-03:00)

XW-2F - Pass Details

Date: 30 October 2021
Orbit: 497 x 515 km, 97.5° (Epoch: 27 November)

Event Time Altitude Azimuth Distance (km) Brightness Sun altitude
Rises 05:25:08 0° 52° (NE) 2,630 ? -6.6°
Reaches altitude 10° 05:27:53 10° 75° (ENE) 1,756 ? -6.1°
Maximum altitude 05:30:09 15° 112° (ESE) 1,454 ? -5.7°
Drops below altitude 10° 05:32:26 10° 149° (SSE) 1,775 ? -5.3°
Sets 05:35:14 0° 171° (S) 2,675 ? -4.8°
